Current Conditions
Clear
Conditions



Pressure
1014.92 (hPa) - 29.97 (inHG)
Visibility

6.2 (miles) - 10.0 (km)
   Temperature
4  °C
39°F
3  °C
Dewpoint
93  %
 Humidity
   Wind Speed
10  mph
9  kts
16  km/h
4.5  m/s
   Wind Direction
 330°
North North
West
   Airport Data
EGTK
Location Oxford (Kidlington) Airport 16 mi (26km)
Metar :EGTK 052050Z 33009KT CAVOK 04/03 Q1015
Sun 5th December 20:50 pm
   Raw Metar Info
Raw METAR is the most common format in the world for the transmission of observational weather data. It is highly standardized through the International Civil Aviation Organization (ICAO), which allows it to be understood throughout most of the world.
   API Info
Data Provided by
https://www.checkwx.com/weather/
   © Info
CSS/SVG/PHP scripts were developed by weather34.com for use in the weather34 template © 2015-2021

Guide Info provided by Metar-Wikipedia